User: anonymous   Login
Location: Unspecified
(0.0000°N, 0.0000°E)
Time: 21:53:27
(UTC+00:00)
Language:

STARS - Orbit

View from above orbital plane
View from above orbital plane
View from above satellite
View from above satellite

Ground track
Ground track

The orbit data is extracted from the following two-line orbital elements,

1 33498U 09002G   18320.55616831  .00000227  00000-0  38391-4 0  9996
2 33498  98.3226 157.5369 0011869 130.2674 229.9576 14.78889874528350
Epoch (UTC): 16 November 2018 13:20:52
Eccentricity: 0.0011869
inclination: 98.3226°
perigee height: 624 km
apogee height: 641 km
right ascension of ascending node: 157.5369°
argument of perigee: 130.2674°
revolutions per day: 14.78889874
mean anomaly at epoch: 229.9576°
orbit number at epoch: 52835

The dashed part of the orbit path shows where the satellite is in the earth's shadow,  

DLR